Flag for Germany Weather past 2 weeks in Erlangen, Bavaria, Germany

Now
59 °F

Clear.


Feels Like: 59 °F
Forecast: 56 / 83 °F
Wind: 2 mph from North

Location: Nuernberg

Current Time: Jul 25, 2014 at 2:11:21 AM

Latest Report: Jul 25, 2014 at 1:20 AM


Visibility: 10 mi

Pressure: 29.95 "Hg

Humidity: 88%

Dew point: 55 °F

Location of ErlangenLocation

Historic Weather in Erlangen — Graph

°F

Erlangen temperature yesterday

Maximum temperature yesterday: 79 °F (at 3:50 PM)
Minimum temperature yesterday: 54 °F (at 5:20 AM)
Average temperature yesterday: 68 °F

Past Weeks' High & Low Weather Summary

 TemperatureHumidityPressure
High90 °F (Jul 19, 3:20 PM)100% (Jul 10, 9:50 PM)30.18 "Hg (Jul 10, 9:50 PM)
Low54 °F (Jul 10, 12:20 AM)26% (Jul 19, 5:50 PM)29.77 "Hg (Jul 10, 4:20 AM)
Average68 °F72%29.96 "Hg
* Reported Jul 10 12:20 AM — Jul 25 12:50 AM, Erlangen, Weather by CustomWeather, © 2014

Note: Actual official high and low records may vary slightly from our data, if they occured in-between our weather recording intervals... More about our weather records

Advertising

Erlangen weather history for previous 24 hours

 ConditionsComfort  
Time TempWeatherWind HumidityBarometerVisibility
12:50 AM
Jul 25
59 °FClear.1 mph88%29.95 "Hg10 mi
12:20 AM61 °FClear.2 mph83%29.95 "Hg10 mi
11:50 PM
Jul 24
63 °FClear.1 mph77%29.95 "Hg10 mi
11:20 PM63 °FClear.2 mph77%29.95 "Hg10 mi
10:50 PM64 °FClear.2 mph73%29.95 "Hg10 mi
10:20 PM66 °FClear.2 mph68%29.92 "Hg10 mi
9:50 PM68 °FSunny.5 mph64%29.92 "Hg10 mi
9:20 PM68 °FSunny.6 mph64%29.92 "Hg10 mi
8:50 PM70 °FSunny.2 mph60%29.92 "Hg10 mi
8:20 PM72 °FSunny.5 mph53%29.89 "Hg10 mi
7:50 PM73 °FPassing clouds.6 mph50%29.89 "HgN/A
7:20 PM73 °FPassing clouds.5 mph53%29.89 "HgN/A
6:50 PM75 °FPassing clouds.7 mph47%29.89 "HgN/A
6:20 PM77 °FPassing clouds.6 mph42%29.89 "HgN/A
5:50 PM77 °FSunny.3 mph42%29.89 "Hg10 mi
5:20 PM77 °FPassing clouds.3 mph44%29.89 "HgN/A
4:50 PM77 °FPassing clouds.5 mph44%29.89 "HgN/A
4:20 PM75 °FPassing clouds.7 mph47%29.89 "HgN/A
3:50 PM79 °FPassing clouds.3 mph39%29.89 "HgN/A
3:20 PM77 °FPassing clouds.5 mph39%29.89 "HgN/A
2:50 PM77 °FPassing clouds.6 mph42%29.92 "HgN/A
2:20 PM77 °FPassing clouds.6 mph42%29.92 "HgN/A
1:50 PM77 °FSunny.7 mph39%29.92 "Hg10 mi
1:20 PM77 °FPassing clouds.5 mph42%29.92 "HgN/A
12:50 PM77 °FSunny.7 mph39%29.92 "Hg10 mi
12:20 PM77 °FSunny.7 mph44%29.92 "Hg10 mi
11:50 AM75 °FPassing clouds.9 mph47%29.92 "HgN/A
11:20 AM73 °FPassing clouds.7 mph47%29.92 "HgN/A
10:50 AM72 °FPassing clouds.8 mph53%29.92 "HgN/A
10:20 AM72 °FPassing clouds.7 mph53%29.92 "HgN/A
9:50 AM72 °FSunny.7 mph53%29.92 "Hg10 mi
9:20 AM70 °FPassing clouds.8 mph60%29.92 "HgN/A
8:50 AM66 °FPassing clouds.7 mph68%29.95 "HgN/A
8:20 AM64 °FSunny.2 mph68%29.95 "Hg10 mi
7:50 AM61 °FSunny.2 mph83%29.95 "Hg10 mi
7:20 AM59 °FSunny.2 mph82%29.95 "Hg10 mi
6:50 AM57 °FSunny.1 mph88%29.92 "Hg10 mi
6:20 AM55 °FClear.1 mph88%29.92 "Hg10 mi
5:50 AM54 °FClear.1 mph94%29.92 "Hg10 mi
5:20 AM54 °FClear.1 mph94%29.92 "Hg10 mi
4:50 AM55 °FClear.2 mph88%29.92 "Hg10 mi
4:20 AM55 °FClear.2 mph94%29.92 "Hg10 mi
3:50 AM55 °FClear.1 mph94%29.92 "Hg10 mi
3:20 AM57 °FClear.2 mph82%29.92 "Hg10 mi
2:50 AM57 °FClear.2 mph88%29.95 "Hg10 mi
2:20 AM59 °FClear.2 mph82%29.95 "Hg10 mi
Weather by CustomWeather, © 2014

See weather overviewHow to use our weather pages